SCP
0 0 0 0 0 0 0 0 0 0 0 0 0 0 0 0 0 0 0 0 0 0 0 0 0 0 0 0 0 0 0 0 0 0 0 0 0 0 0 0 0 0 0
0 1 1 1 0 0 0 0 0 0 0 0 0 0 0 0 0 0 0 0 0 0 0 0 0 0 0 0 0 0 0 0 0 0 0 0 0 0 0 0 0 0 0
1 1 1 1 1 1 0 0 0 0 0 0 0 0 0 0 0 0 0 0 0 0 0 0 0 0 0 0 0 0 0 0 0 0 0 0 0 0 0 0 0 0 0
1 1 1 1 1 1 1 1 0 0 0 0 0 0 0 0 0 0 0 0 0 0 0 0 0 0 0 0 0 0 0 0 0 0 0 0 0 0 0 0 0 0 0
1 1 1 1 1 1 1 1 1 0 0 0 0 0 0 0 0 0 0 0 0 0 0 0 0 0 0 0 0 0 0 0 0 0 0 0 0 0 0 0 0 0 0
1 1 1 1 1 1 1 1 1 1 1 0 0 0 0 0 0 0 0 0 0 0 0 0 0 0 0 0 0 0 0 0 0 0 0 0 0 0 0 0 0 0 0
1 1 1 1 1 1 1 1 1 1 1 1 0 0 0 0 0 0 0 0 0 0 0 0 0 0 0 0 0 0 0 0 0 0 0 0 0 0 0 0 0 0 0
1 1 1 1 1 1 1 1 1 1 1 1 1 0 0 0 0 0 0 0 0 0 0 0 0 0 0 0 0 0 0 0 0 0 0 0 0 0 0 0 0 0 0
1 1 1 1 1 1 1 1 1 1 1 1 1 0 0 0 0 0 0 0 0 0 0 0 0 0 0 0 0 0 0 0 0 0 0 0 0 0 0 0 0 0 0
1 1 1 1 1 1 1 1 1 1 1 1 1 1 0 0 0 0 0 0 0 0 0 0 0 0 0 0 0 0 0 0 0 0 0 0 0 0 0 0 0 0 0
1 1 1 1 1 1 1 1 1 1 1 1 1 1 1 0 0 0 0 0 0 0 0 0 0 0 0 0 0 0 0 0 0 0 0 0 0 0 0 0 0 0 0
1 1 1 1 1 1 1 1 1 1 1 1 1 1 1 0 0 0 0 0 0 0 0 0 0 0 0 0 0 0 0 0 0 0 0 0 0 0 0 0 0 0 0
1 1 1 1 1 1 1 1 1 1 1 1 1 1 1 0 0 0 0 0 0 0 0 0 0 0 0 0 0 0 0 0 0 0 0 0 0 0 0 0 0 0 0
0 1 1 1 1 1 1 1 1 1 1 1 1 1 1 0 0 0 0 0 0 0 0 0 0 0 0 0 0 0 0 0 0 0 0 0 0 0 0 0 0 0 0
0 0 1 1 1 1 1 1 1 1 1 1 1 1 1 0 0 0 0 0 0 0 0 0 0 0 0 0 0 0 0 0 0 0 0 0 0 0 0 0 0 0 0
0 0 1 1 1 1 1 1 1 1 1 1 1 1 1 0 0 0 0 0 0 0 0 0 0 0 0 0 0 0 0 0 0 0 0 0 0 0 0 0 0 0 0
0 0 1 1 1 1 1 1 1 1 1 1 1 1 1 0 0 0 0 0 0 0 0 0 0 0 0 0 0 0 0 0 0 0 0 0 0 0 0 0 0 0 0
0 0 1 1 1 1 1 1 1 1 1 1 1 1 1 1 0 0 0 0 0 0 0 0 0 0 0 0 0 0 0 0 0 0 0 0 0 0 0 0 0 0 0
0 0 0 0 0 1 1 1 1 1 1 1 1 1 1 1 0 0 0 0 0 0 0 0 0 0 0 0 0 0 0 0 0 0 0 0 0 0 0 0 0 0 0
0 0 0 0 0 1 1 1 1 1 1 1 1 1 1 1 0 0 0 0 0 0 0 0 0 0 0 0 0 0 0 0 0 0 0 0 0 0 0 0 0 0 0
0 0 0 0 0 0 1 1 1 1 1 1 1 1 1 1 1 0 0 0 0 0 0 0 0 0 0 0 0 0 0 0 0 0 0 0 0 0 0 0 0 0 0
0 0 0 0 0 0 0 0 0 1 1 1 0 0 1 1 1 0 0 0 0 0 0 0 0 0 0 0 0 0 0 0 0 0 0 0 0 0 0 0 0 0 0
0 0 0 0 0 0 0 0 0 0 1 1 0 0 0 0 0 0 0 0 0 0 0 0 0 0 0 0 0 0 0 0 0 0 0 0 0 0 0 0 0 0 0
0 0 0 0 0 0 0 0 0 0 1 1 1 0 0 0 0 0 0 0 0 0 0 0 0 0 0 0 0 0 0 0 0 0 0 0 0 0 0 0 0 0 0
0 0 0 0 0 0 0 0 0 0 1 1 1 0 0 0 0 0 0 0 0 0 0 0 0 0 0 0 0 0 0 0 0 0 0 0 0 0 0 0 0 0 0
0 0 0 0 0 0 0 0 0 0 0 0 0 0 0 0 0 0 0 0 0 0 0 0 0 0 0 0 0 0 0 0 0 0 0 0 0 0 0 0 0 0 0
Wind_Speed
10 10 11 11 10 9 9 10 9 7 6 4 4 3 3 2 2 3 4 4 4 4 4 3 3 3 2 2 3 2 2 1 1 2 1 1 1 2 2 2 3 4 4
10 12 12 12 12 12 12 11 10 9 8 6 4 3 3 2 2 2 3 4 5 5 5 4 4 3 3 3 3 2 2 1 2 2 1 1 2 1 2 2 3 4 3
14 15 15 15 14 14 14 13 11 10 9 7 4 3 2 2 2 2 2 4 5 5 4 5 4 4 4 3 4 3 4 2 1 1 3 2 2 2 2 2 3 3 3
13 13 14 15 16 15 13 11 11 10 9 9 7 7 5 5 5 4 3 3 4 5 5 5 5 4 4 4 4 4 3 3 2 1 1 1 2 1 2 2 1 2 4
14 15 16 16 14 13 12 11 11 10 10 10 10 8 6 4 3 3 4 4 3 4 5 5 5 5 4 5 4 4 4 3 3 3 2 2 1 1 2 2 2 2 2
14 13 12 11 11 12 12 11 11 11 10 10 10 9 9 7 5 5 5 4 3 3 5 5 5 5 4 5 5 5 5 4 4 3 3 3 3 3 3 3 2 2 2
12 12 13 14 14 15 14 13 13 12 11 11 11 10 9 9 9 7 6 5 4 4 5 6 5 5 5 5 5 5 5 5 5 5 4 3 3 3 3 2 2 2 2
11 12 14 14 15 15 15 14 14 13 12 12 11 9 9 7 6 7 6 6 6 5 5 6 6 6 6 6 5 4 5 4 5 6 5 3 4 4 3 3 3 1 2
10 11 12 13 14 15 15 15 14 13 12 12 11 9 9 8 8 7 6 5 5 5 6 6 6 6 6 6 6 5 5 5 5 5 5 4 4 4 4 3 4 3 2
7 9 10 12 13 13 12 12 12 13 11 11 11 9 9 9 8 7 7 7 6 6 6 6 6 6 6 6 6 5 5 5 5 4 5 5 4 4 4 4 4 4 4
6 7 8 10 11 10 10 11 12 10 10 10 10 9 8 8 8 7 8 7 7 7 7 7 7 7 7 6 6 7 6 7 6 5 6 7 5 4 4 4 4 4 4
3 5 7 8 8 9 10 11 11 11 10 9 9 9 7 7 8 8 8 7 7 7 7 7 7 7 7 7 8 8 8 8 8 7 6 7 5 6 4 4 5 4 5
1 3 5 7 7 8 9 9 10 10 8 8 9 8 8 8 9 9 8 7 7 7 7 7 8 8 8 8 8 8 8 8 8 8 8 7 6 6 5 5 5 4 4
2 3 4 5 6 7 8 9 8 8 8 9 9 9 9 9 9 8 7 7 7 7 8 8 8 8 7 8 8 8 8 8 7 8 8 8 8 8 6 5 6 5 4
3 3 4 4 5 6 6 7 7 7 7 8 8 8 7 7 7 6 6 7 7 8 7 7 7 7 7 7 8 7 8 7 7 7 8 8 9 10 8 6 6 6 5
3 3 3 4 4 5 5 5 5 6 6 7 7 6 5 6 6 6 6 6 5 5 5 7 7 7 7 8 10 8 7 7 7 7 7 7 8 9 10 10 9 9 7
2 2 2 2 3 3 4 4 4 4 6 6 6 5 6 6 6 5 5 5 5 4 5 5 6 6 6 8 9 10 7 7 7 7 6 6 6 8 7 8 9 9 10
3 2 2 2 2 2 3 4 3 4 4 4 4 5 5 5 5 4 4 4 4 4 4 5 5 5 5 6 7 8 7 6 7 7 7 7 7 7 7 6 6 6 6
3 3 3 4 3 3 3 6 5 3 4 4 4 4 4 5 4 4 4 3 3 3 3 3 3 3 3 3 5 5 4 5 6 6 6 7 7 7 8 7 6 5 4
4 4 4 5 4 3 4 6 5 4 3 2 3 3 3 4 4 3 3 2 2 2 2 2 2 3 3 3 3 4 3 3 4 4 4 7 7 7 8 7 6 6 4
5 5 6 6 4 3 5 5 4 2 2 2 3 3 3 3 3 2 2 2 2 1 1 1 2 2 2 2 2 3 2 3 3 2 2 3 5 6 7 6 5 6 4
6 6 6 6 5 5 5 5 4 2 3 4 4 4 3 2 2 3 2 2 2 1 0 1 1 1 1 1 1 2 3 3 3 3 2 2 4 5 6 5 4 4 3
5 5 6 6 5 5 5 5 3 3 5 5 4 4 4 3 3 3 2 2 1 1 0 0 1 2 1 1 2 2 2 3 2 1 1 2 4 4 3 4 4 4 2
4 5 6 6 5 5 5 3 2 3 5 4 3 3 4 4 3 3 2 2 1 1 0 0 1 2 2 2 2 1 1 1 0 1 2 3 4 4 5 4 3 2 2
4 4 5 5 5 5 4 4 3 4 4 4 3 3 3 3 3 4 3 2 2 1 1 0 0 1 2 3 2 0 0 1 2 3 3 3 3 3 3 3 2 2 2
4 5 5 5 5 5 5 5 4 3 4 3 2 2 2 3 3 4 5 9 6 7 6 4 2 1 2 3 3 4 5 5 5 5 4 3 2 2 2 2 2 2 1
Wind_Direction
191 181 182 181 177 177 178 179 177 173 165 159 163 165 182 181 183 192 188 182 178 172 166 166 161 159 161 166 147 125 113 100 111 90 40 357 287 230 229 223 221 228 228
182 184 184 183 184 185 186 184 183 179 179 179 170 165 160 171 182 184 182 186 182 179 181 172 173 171 162 159 160 144 136 138 144 132 109 360 339 312 244 217 220 229 224
192 189 189 189 187 191 191 190 187 183 182 172 150 126 105 101 143 176 190 198 188 187 184 181 177 179 175 185 187 173 164 169 171 150 147 157 236 300 313 256 232 226 224
197 194 192 193 193 193 190 189 186 184 181 172 171 167 173 183 194 185 189 192 190 191 190 185 184 184 184 194 197 181 173 163 182 179 168 173 168 180 299 310 278 249 236
199 198 197 195 193 188 187 188 183 186 182 181 183 180 183 184 173 172 183 191 195 200 197 191 188 192 196 201 198 184 186 183 181 180 169 164 158 167 189 271 302 296 255
204 201 195 187 186 184 185 185 185 190 185 185 187 188 186 179 174 185 192 196 198 205 206 197 196 200 202 205 205 198 195 197 195 190 183 177 177 190 188 219 253 269 277
201 195 188 188 187 186 187 188 189 193 189 189 193 195 191 186 191 192 197 195 198 207 212 202 199 200 205 205 201 199 205 200 201 203 206 205 204 178 174 184 223 252 280
199 198 195 192 192 190 188 188 191 194 191 193 198 197 194 194 200 198 195 200 206 210 206 202 205 205 203 205 198 204 211 205 210 215 209 210 216 197 189 183 181 224 278
201 200 194 191 190 191 191 190 191 193 195 197 196 197 196 198 200 197 197 203 205 206 202 203 208 209 207 205 196 208 215 208 215 218 216 218 220 210 208 197 187 184 221
205 198 192 189 189 191 188 186 190 195 196 196 199 202 200 201 200 196 201 203 204 204 198 204 210 212 211 207 203 210 216 216 222 217 217 225 224 216 209 205 203 197 199
205 196 187 184 181 178 179 186 189 190 192 196 200 203 201 198 197 204 209 208 207 203 205 206 208 211 213 209 207 216 212 216 224 221 219 226 218 215 212 203 199 200 194
196 184 171 165 167 173 178 185 187 190 194 194 195 201 199 195 201 211 213 208 210 208 208 207 209 215 215 211 213 218 216 216 222 222 218 226 216 215 213 204 205 205 201
141 148 148 156 167 173 178 184 187 190 186 186 192 197 198 199 209 214 212 207 209 212 210 207 212 216 216 215 217 218 218 218 222 219 218 222 211 217 214 209 209 208 203
115 140 146 157 164 171 177 180 183 181 179 183 189 198 205 206 210 209 208 208 207 211 213 214 217 218 218 219 220 220 222 221 222 222 219 216 212 215 213 213 212 204 197
64 116 143 153 157 164 170 172 176 177 179 181 189 202 206 205 204 202 204 209 211 215 214 215 219 221 220 223 221 222 223 221 223 223 221 220 217 213 208 209 206 196 196
47 71 109 131 149 162 162 164 174 176 173 183 194 194 191 197 203 203 199 201 209 215 214 218 219 222 227 226 219 218 226 224 223 228 227 225 224 222 214 212 206 195 195
82 68 89 126 147 156 154 165 174 167 172 183 190 188 190 196 203 200 192 197 204 208 217 225 222 226 232 229 225 219 220 225 226 227 225 227 224 213 216 215 212 209 209
88 73 70 71 89 128 135 124 120 147 162 173 180 181 185 191 185 179 190 200 201 208 221 227 226 234 246 235 230 225 225 233 234 229 224 223 223 215 204 202 205 214 218
86 78 79 80 73 94 118 120 124 130 149 172 182 180 176 174 170 179 190 194 197 212 220 224 223 229 254 248 235 219 223 234 241 239 232 225 224 216 198 194 200 208 219
71 74 70 77 78 71 102 109 114 119 140 164 170 154 147 151 159 176 179 177 183 204 198 215 227 231 252 257 230 210 218 235 247 246 237 227 222 208 188 189 191 204 215
70 73 70 66 61 65 87 95 97 103 99 92 101 107 118 130 136 142 133 132 148 161 181 226 250 246 261 271 237 205 211 229 244 253 250 237 207 200 192 187 194 205 194
69 70 72 61 53 59 81 83 77 67 84 96 99 97 94 101 103 110 113 112 130 141 187 281 304 314 317 308 265 217 219 228 228 240 244 229 186 187 184 179 177 173 162
67 66 76 66 58 59 76 82 61 74 91 94 92 87 83 80 85 99 105 98 115 139 182 272 298 318 330 301 277 258 244 234 227 247 139 145 145 147 144 136 141 147 148
68 64 64 61 54 53 57 63 69 85 89 91 89 91 95 88 81 79 83 91 89 114 132 229 304 321 335 332 320 290 255 236 184 90 80 94 98 99 93 94 102 111 123
72 70 68 60 46 47 47 42 53 87 94 90 85 86 92 99 87 76 65 77 63 64 87 288 296 321 317 324 336 312 132 135 119 103 79 75 83 85 81 79 78 86 98
70 66 60 56 44 45 44 37 42 77 98 91 86 96 101 103 107 101 75 56 59 54 51 46 55 43 15 22 58 64 67 78 99 95 84 77 79 90 94 91 81 72 77